Volver al catálogo

SL-16 DEB

ActivoLEO
NORAD 23708·DEBRIS·🇷🇺 Russia

Lanzado Oct 31, 1995 desde Baikonur Cosmodrome

Loading…

Próximos Pases (próximas 24 horas)

TLE

ActualizadoSource: Space-Track

Época: Sep 14, 2026, 08:21 UTC

1 23708U 95058E   26257.34843788  .00000025  00000-0  60252-4 0  9990
2 23708  71.0487 226.8032 0183005 125.5163  24.2333 13.76743628550387

Sigue SL-16 DEB en tiempo real con AllMySat

Download on the App Store